Location: Arbon
(43.0005°N, 0.7472°E)
Time: 22:35:42
(UTC+00:00)

Altair - Pass Details

Date: 30 November 2020
Orbit: 1501 x 1682 km, 47.2° (Epoch: 26 January)

Event Time Altitude Azimuth Distance (km) Brightness Sun altitude
Rises 17:43:07 0° 189° (S) 4,775 10.4 -14.2°
Reaches altitude 10° 17:47:06 10° 176° (S) 3,762 9.7 -14.9°
Maximum altitude 17:53:56 23° 129° (SE) 2,842 8.6 -16.1°
Enters shadow 17:57:28 18° 100° (E) 3,093 8.5 -16.7°
Drops below altitude 10° 18:00:37 10° 82° (E) 3,685 - -17.3°
Sets 18:04:25 0° 69° (ENE) 4,653 - -17.9°
